Orbital elements:
2012 UR136 PHA, Earth MOID = 0.0368 AU
Epoch 2012 Sept. 30.0 TT = JDT 2456200.5 MPC
M 45.19763 (2000.0) P Q
n 0.37520844 Peri. 202.57907 +0.34350165 +0.93326652
a 1.9037985 Node 87.64088 -0.84481315 +0.35588726
e 0.4539019 Incl. 6.03098 -0.41024062 +0.04855773
P 2.63 H 19.1 G 0.15 U 8